This is the latest recevied weather packets stored in our database for station/object M0UPS-13. If no packets are shown the sender has not sent any weather packets the latest 10 day(s).
| Time | Temp. | Humidity | Pressure | Rain* | Wind** | Luminosity | Snow |
|---|---|---|---|---|---|---|---|
| 1778002202 | 15.56° C | 50% | 1011.6 hPa | 0 mm | - | 12 W/m² | - |
| 1778001902 | 15.56° C | 49% | 1011.7 hPa | 0 mm | - | 14 W/m² | - |
| 1778001602 | 15.56° C | 49% | 1011.6 hPa | 0 mm | - | 17 W/m² | - |
| 1778001302 | 15.56° C | 49% | 1011.6 hPa | 0 mm | - | 17 W/m² | - |
| 1778001002 | 15.56° C | 49% | 1011.6 hPa | 0 mm | - | 17 W/m² | - |
| 1778000702 | 15.56° C | 49% | 1011.7 hPa | 0 mm | - | 17 W/m² | - |
| 1778000402 | 16.11° C | 49% | 1011.6 hPa | 0 mm | - | 21 W/m² | - |
| 1778000102 | 16.11° C | 49% | 1011.7 hPa | 0 mm | - | 26 W/m² | - |
| 1777999802 | 16.11° C | 50% | 1011.6 hPa | 0 mm | - | 33 W/m² | - |
| 1777999502 | 16.11° C | 50% | 1011.7 hPa | 0 mm | - | 42 W/m² | - |
| 1777999203 | 16.11° C | 48% | 1011.5 hPa | 0 mm | - | 45 W/m² | - |
| 1777998904 | 16.11° C | 51% | 1011.6 hPa | 0 mm | - | 40 W/m² | - |
| 1777998603 | 16.11° C | 49% | 1011.5 hPa | 0 mm | - | 50 W/m² | - |
| 1777998302 | 16.11° C | 49% | 1011.5 hPa | 0 mm | - | 61 W/m² | - |
| 1777998002 | 16.11° C | 49% | 1011.7 hPa | 0 mm | - | 57 W/m² | - |
| 1777997702 | 16.11° C | 49% | 1011.7 hPa | 0 mm | - | 52 W/m² | - |
| 1777997402 | 16.11° C | 47% | 1011.7 hPa | 0 mm | - | 56 W/m² | - |
| 1777997102 | 16.67° C | 48% | 1011.5 hPa | 0 mm | - | 68 W/m² | - |
| 1777996802 | 16.67° C | 49% | 1011.6 hPa | 0 mm | - | 85 W/m² | - |
| 1777996502 | 16.67° C | 46% | 1011.6 hPa | 0 mm | - | 101 W/m² | - |
| 1777996202 | 16.67° C | 50% | 1011.7 hPa | 0 mm | - | 96 W/m² | - |
| 1777995903 | 16.67° C | 47% | 1011.7 hPa | 0 mm | - | 88 W/m² | - |
| 1777995602 | 16.67° C | 48% | 1011.5 hPa | 0 mm | - | 101 W/m² | - |
| 1777995302 | 16.67° C | 48% | 1011.7 hPa | 0 mm | - | 124 W/m² | - |
| 1777995002 | 16.11° C | 49% | 1011.8 hPa | 0 mm | - | 135 W/m² | - |
* Rain latest hour (hover to see other rain measurements)
** Current wind speed in m/s (hover to see current wind gust speed)